[[{"header":{"parameterUnit":"m.s-1","parameterCategory":1,"la1":30.2991,"la2":30.254,"lo1":-89.0895,"lo2":-89.0444,"dy":0.0017,"dx":0.0017,"nx":28,"ny":28,"refTime":"2024-06-14T21:00:00:Z","depth":0,"parameterNumber":2,"parameterNumberName":"U-component_of_WINDS"},"data":[0,0,0,0,0,0,0,0,0,0,0,0,0,0,0,0,0,0,0,0,0,0,0,0,0,0,0,0,0,0,0,0,0,0,0,0,0,0,0,0,0,0,0,0,0,0,0,0,0,0,0,0,0,0,0,0,0,0,-2.2785,-2.2785,0,-2.2745,-2.2745,-2.2744,-2.2705,-2.2704,-2.2704,-2.2703,-2.2662,-2.2662,-2.2661,0,0,0,0,0,0,0,0,0,0,0,0,0,-2.283,-2.2829,-2.2785,-2.2785,-2.2784,-2.2745,-2.2745,-2.2744,-2.2705,-2.2704,-2.2704,-2.2703,-2.2663,-2.2662,-2.2661,0,0,0,0,0,0,0,0,0,0,0,0,0,-2.2802,-2.2829,-2.2785,-2.276,-2.2757,-2.2746,-2.2745,-2.2744,-2.2705,-2.2704,-2.2704,-2.2703,-2.2663,-2.2662,-2.2661,-2.2671,0,0,-2.2658,-2.2658,0,0,0,0,0,0,0,0,-2.2804,-2.2801,-2.2764,-2.2762,-2.2759,-2.2729,-2.2745,-2.272,-2.2705,-2.2725,-2.2703,-2.2703,-2.2685,-2.2683,-2.2677,-2.2669,-2.2667,-2.2658,-2.2658,-2.2657,-2.2657,0,0,0,0,0,0,0,-2.2806,-2.2802,-2.2769,-2.2764,-2.276,-2.2751,-2.2747,-2.274,-2.271,-2.2723,-2.272,-2.2716,-2.2684,-2.2678,-2.2675,-2.2667,-2.2658,-2.2657,-2.2657,-2.2657,-2.2669,-2.267,0,0,0,0,0,0,-2.2811,-2.2804,-2.2771,-2.2768,-2.278,-2.2751,-2.2746,-2.274,-2.271,-2.2705,-2.2717,-2.2714,-2.268,-2.2677,-2.2674,-2.2685,-2.2657,-2.2656,-2.2656,-2.2668,-2.2669,-2.267,0,0,0,0,0,0,-2.2813,-2.2809,-2.2772,-2.2785,-2.278,-2.2751,-2.2745,-2.2739,-2.2733,-2.2705,-2.27,-2.2716,-2.2679,-2.2675,-2.2673,-2.2683,-2.2656,-2.2655,-2.2667,-2.2668,-2.267,-2.2707,0,0,0,0,0,0,-2.2814,-2.2809,-2.2812,-2.2786,-2.2779,-2.2771,-2.2745,-2.2739,-2.2732,-2.2728,-2.2703,-2.2698,-2.2678,-2.2674,-2.2672,-2.2681,-2.2654,-2.2666,-2.2668,-2.2669,-2.2705,-2.271,-2.2714,0,0,0,0,0,-2.2816,-2.2823,-2.2812,-2.2808,-2.2782,-2.2772,-2.2768,-2.2745,-2.2733,-2.2736,-2.2718,-2.2699,-2.2683,-2.2674,-2.2671,-2.2681,-2.2665,-2.2667,-2.2669,-2.2703,-2.2709,-2.2714,0,0,0,0,0,0,-2.285,-2.2819,-2.2807,-2.2806,-2.2792,-2.2765,-2.2768,-2.2751,-2.274,-2.2737,-2.2709,-2.2704,-2.2705,-2.2693,-2.2684,-2.2691,-2.2671,-2.2673,-2.2698,-2.2704,-2.2708,-2.2711,-2.2654,0,0,0,0,0,-2.2858,-2.2852,-2.2825,-2.2827,-2.2821,-2.2796,-2.2791,-2.2774,-2.2759,-2.2752,-2.2734,-2.272,-2.2712,-2.2707,-2.2698,-2.2704,-2.2699,-2.2709,-2.2713,-2.2717,-2.2719,-2.2723,-2.2728,-2.2676,-2.2676,-2.2676,0,0,-2.2873,-2.2856,-2.2853,-2.2834,-2.2821,-2.2817,-2.2791,-2.2786,-2.2783,-2.2751,-2.2748,-2.2736,-2.2718,-2.272,-2.272,-2.271,-2.2732,-2.272,-2.2723,-2.2722,-2.2726,-2.2731,-2.2735,-2.2678,-2.2678,-2.2677,0,0,-2.2899,-2.2885,-2.2886,-2.2875,-2.2856,-2.284,-2.2841,-2.2817,-2.2808,-2.2805,-2.2782,-2.2778,-2.2764,-2.2754,-2.2747,-2.2774,-2.2756,-2.2772,-2.2794,-2.2799,-2.2803,-2.2806,-2.2817,-2.2822,-2.2773,-2.2773,-2.2773,0,-2.292,-2.2912,-2.2889,-2.2886,-2.2879,-2.2853,-2.2855,-2.2845,-2.2824,-2.2821,-2.281,-2.2794,-2.278,-2.2781,-2.2788,-2.2783,-2.2784,-2.2773,-2.2804,-2.2808,-2.281,-2.2821,-2.2825,-2.2775,-2.2775,-2.2775,-2.2775,0,-2.294,-2.2935,-2.2938,-2.2921,-2.2914,-2.2914,-2.2892,-2.2889,-2.2875,-2.2861,-2.286,-2.2843,-2.2831,-2.283,-2.2815,-2.283,-2.2824,-2.2809,-2.2789,-2.2818,-2.2827,-2.2831,-2.2778,-2.2777,-2.2777,-2.2776,0,0,-2.2983,-2.2956,-2.2957,-2.295,-2.293,-2.2926,-2.2927,-2.2916,-2.2915,-2.2903,-2.2903,-2.2894,-2.2881,-2.2873,-2.2858,-2.2862,-2.2887,-2.2847,-2.2846,-2.2855,-2.2904,-2.2916,-2.292,-2.2876,-2.2876,-2.2877,-2.2906,0,-2.3005,-2.3003,-2.2985,-2.2988,-2.2985,-2.2962,-2.2962,-2.2951,-2.2939,-2.2935,-2.2921,-2.2916,-2.2898,-2.2894,-2.2897,-2.2883,-2.2896,-2.2881,-2.2877,-2.2877,-2.2881,-2.2925,-2.2936,-2.2964,-2.2909,-2.291,-2.291,0,-2.303,-2.3022,-2.3026,-2.3009,-2.3007,-2.3007,-2.2998,-2.2994,-2.2982,-2.2973,-2.2967,-2.295,-2.295,-2.2933,-2.2934,-2.2925,-2.2922,-2.2916,-2.2916,-2.2914,-2.2895,-2.2925,-2.2972,-2.2977,-2.2915,-2.2915,-2.2915,0,-2.3063,-2.3052,-2.3054,-2.3049,-2.3029,-2.303,-2.3022,-2.3009,-2.3005,-2.2998,-2.2995,-2.2988,-2.2984,-2.2979,-2.2962,-2.295,-2.2966,-2.2946,-2.296,-2.296,-2.2963,-2.2963,-2.3011,-2.2962,-2.2962,-2.2962,-2.2962,0,-2.3089,-2.3093,-2.3069,-2.307,-2.3074,-2.3054,-2.3059,-2.3049,-2.3038,-2.3038,-2.3018,-2.3018,-2.2995,-2.2993,-2.298,-2.2985,-2.2983,-2.2976,-2.2973,-2.2978,-2.2979,-2.2976,-2.2973,-2.2963,-2.2963,-2.2962,-2.2962,0,-2.3125,-2.3109,-2.311,-2.3092,-2.3088,-2.3092,-2.3078,-2.3079,-2.3067,-2.3067,-2.3066,-2.3047,-2.3045,-2.3028,-2.302,-2.3012,-2.3022,-2.3014,-2.3026,-2.3023,-2.3038,-2.3037,-2.3086,-2.3092,-2.3038,-2.3039,-2.3039,0,-2.3143,-2.3146,-2.313,-2.3129,-2.3122,-2.312,-2.3117,-2.3098,-2.3096,-2.3084,-2.3087,-2.3084,-2.3079,-2.3077,-2.3063,-2.3059,-2.3051,-2.3069,-2.305,-2.3057,-2.3052,-2.3053,-2.3054,-2.3072,-2.3073,-2.3073,-2.3074,0,-2.3178,-2.317,-2.3166,-2.3161,-2.3158,-2.3153,-2.3146,-2.3146,-2.3126,-2.3125,-2.3123,-2.312,-2.3114,-2.3111,-2.3105,-2.3098,-2.3083,-2.308,-2.3083,-2.3088,-2.3096,-2.3093,-2.3037,-2.3079,-2.3078,-2.3078,-2.3077,-2.3077,-2.3205,-2.3208,-2.3198,-2.3195,-2.3189,-2.3184,-2.3185,-2.3175,-2.3173,-2.3167,-2.3157,-2.3157,-2.3148,-2.3139,-2.3133,-2.3134,-2.3125,-2.3129,-2.313,-2.3131,-2.3135,-2.3096,-2.3132,-2.3132,-2.3132,-2.3132,-2.3132,0,-2.3239,-2.3233,-2.3231,-2.3223,-2.3222,-2.321,-2.3203,-2.3203,-2.3203,-2.3196,-2.3194,-2.3193,-2.3191,-2.3179,-2.3176,-2.3179,-2.3173,-2.3179,-2.3179,-2.3178,-2.3142,-2.314,-2.3185,-2.3185,-2.3185,-2.3185,-2.3185,-2.3185,-2.3257,-2.3261,-2.3254,-2.3256,-2.3249,-2.325,-2.3247,-2.3244,-2.3238,-2.3239,-2.3237,-2.323,-2.3222,-2.3219,-2.3217,-2.3214,-2.3214,-2.3223,-2.3218,-2.3185,-2.318,-2.3175,-2.3173,-2.3223,-2.3224,-2.3253,-2.3254,-2.3254]},{"header":{"parameterUnit":"m.s-1","parameterCategory":1,"la1":30.2991,"la2":30.254,"lo1":-89.0895,"lo2":-89.0444,"dy":0.0017,"dx":0.0017,"nx":28,"ny":28,"refTime":"2024-06-14T21:00:00:Z","depth":0,"parameterNumber":3,"parameterNumberName":"V-component_of_WINDS"},"data":[0,0,0,0,0,0,0,0,0,0,0,0,0,0,0,0,0,0,0,0,0,0,0,0,0,0,0,0,0,0,0,0,0,0,0,0,0,0,0,0,0,0,0,0,0,0,0,0,0,0,0,0,0,0,0,0,0,0,3.5078,3.5078,0,3.5084,3.5084,3.5084,3.5156,3.5158,3.5159,3.5161,3.516,3.5159,3.5157,0,0,0,0,0,0,0,0,0,0,0,0,0,3.5122,3.5121,3.5078,3.5078,3.5078,3.5084,3.5084,3.5084,3.5155,3.5158,3.516,3.5162,3.5161,3.5159,3.5157,0,0,0,0,0,0,0,0,0,0,0,0,0,3.5113,3.5121,3.5078,3.5115,3.5118,3.5084,3.5084,3.5084,3.5155,3.5158,3.516,3.5163,3.5161,3.5159,3.5156,3.5086,0,0,3.5149,3.5147,0,0,0,0,0,0,0,0,3.5113,3.5111,3.5109,3.5112,3.5116,3.5122,3.51,3.5084,3.5154,3.5141,3.5161,3.5164,3.5145,3.5144,3.5139,3.5086,3.5086,3.5148,3.5147,3.5146,3.5145,0,0,0,0,0,0,0,3.5114,3.5111,3.508,3.5109,3.5113,3.5129,3.5131,3.5097,3.5127,3.5142,3.5147,3.5147,3.5147,3.5141,3.5139,3.5086,3.5148,3.5146,3.5145,3.5144,3.4976,3.4973,0,0,0,0,0,0,3.511,3.5111,3.508,3.508,3.5122,3.5126,3.5128,3.5117,3.5128,3.5132,3.5145,3.5151,3.5144,3.5142,3.5139,3.5058,3.5146,3.5143,3.5142,3.4979,3.4975,3.4972,0,0,0,0,0,0,3.5111,3.5107,3.508,3.5097,3.5095,3.5122,3.511,3.5116,3.511,3.513,3.5135,3.5134,3.5146,3.5143,3.5099,3.5059,3.5142,3.514,3.4982,3.4978,3.4974,3.4894,0,0,0,0,0,0,3.5112,3.5107,3.5081,3.5096,3.5094,3.5041,3.5107,3.5114,3.5106,3.5114,3.5121,3.5124,3.5148,3.5103,3.5097,3.5057,3.5138,3.4986,3.498,3.4975,3.49,3.4888,3.4877,0,0,0,0,0,3.5113,3.5057,3.508,3.5076,3.5063,3.5038,3.5037,3.5067,3.5103,3.5077,3.509,3.5124,3.5065,3.5098,3.5092,3.505,3.4989,3.4982,3.4976,3.4906,3.489,3.4877,0,0,0,0,0,0,3.5034,3.506,3.5085,3.5032,3.5033,3.5051,3.5019,3.5049,3.5038,3.5045,3.5081,3.5082,3.5033,3.5037,3.5074,3.4983,3.5033,3.5025,3.4982,3.4967,3.4955,3.4955,3.5136,0,0,0,0,0,3.5011,3.499,3.5013,3.4964,3.4964,3.4991,3.4981,3.5005,3.5006,3.5006,3.5016,3.5014,3.4995,3.4981,3.4965,3.4902,3.4904,3.487,3.4859,3.4849,3.4841,3.4808,3.4793,3.4951,3.4951,3.4951,0,0,3.4961,3.4973,3.4957,3.4949,3.4952,3.4929,3.499,3.4963,3.4945,3.5001,3.4961,3.4968,3.4968,3.4915,3.4892,3.4917,3.4798,3.484,3.4832,3.483,3.48,3.4785,3.4772,3.4946,3.4947,3.4948,0,0,3.486,3.4867,3.4827,3.483,3.4836,3.4854,3.4845,3.4858,3.4866,3.4827,3.4869,3.4848,3.4814,3.4813,3.4808,3.4707,3.4739,3.4701,3.4638,3.4606,3.4593,3.4582,3.4547,3.4533,3.4693,3.4693,3.4693,0,3.4797,3.4766,3.4802,3.4773,3.4767,3.482,3.4779,3.4779,3.4778,3.4772,3.4801,3.4761,3.4765,3.4712,3.4688,3.4682,3.4671,3.47,3.4593,3.4582,3.4572,3.4539,3.4525,3.4688,3.4689,3.4689,3.469,0,3.4688,3.4666,3.4633,3.4633,3.4624,3.4589,3.4619,3.4605,3.463,3.4645,3.4605,3.4611,3.4598,3.4587,3.461,3.4537,3.4553,3.4587,3.4637,3.4552,3.4521,3.4508,3.4682,3.4683,3.4685,3.4686,0,0,3.4535,3.4558,3.4545,3.4547,3.4557,3.4539,3.4506,3.4496,3.4483,3.448,3.4453,3.4424,3.4456,3.445,3.4473,3.4445,3.4365,3.4482,3.4483,3.446,3.4286,3.426,3.4245,3.4387,3.4385,3.4383,3.4286,0,3.4437,3.4385,3.4417,3.4359,3.4338,3.4388,3.4359,3.4362,3.4375,3.4359,3.4373,3.4352,3.4396,3.4393,3.4367,3.438,3.4331,3.4388,3.436,3.4358,3.4358,3.4228,3.4201,3.4109,3.4274,3.4272,3.427,0,3.4316,3.4311,3.4251,3.4267,3.426,3.4233,3.4227,3.421,3.4214,3.4226,3.422,3.4251,3.4218,3.4269,3.4224,3.4262,3.4253,3.4258,3.4255,3.4252,3.4309,3.4222,3.4081,3.4067,3.4252,3.4253,3.4254,0,3.421,3.4188,3.415,3.4149,3.4167,3.4147,3.4153,3.416,3.4152,3.4145,3.414,3.4128,3.4122,3.4112,3.4138,3.4173,3.4089,3.4142,3.4097,3.4096,3.4076,3.4077,3.393,3.4071,3.4071,3.4071,3.4071,0,3.4097,3.4058,3.4103,3.4079,3.4037,3.4075,3.4031,3.4042,3.4048,3.4026,3.4068,3.4046,3.4083,3.4064,3.4084,3.4043,3.404,3.4048,3.4053,3.4044,3.4042,3.4037,3.4044,3.4067,3.4068,3.4069,3.407,0,3.3971,3.4,3.3961,3.3982,3.3986,3.3954,3.3971,3.3949,3.3967,3.3938,3.3934,3.396,3.3941,3.3966,3.3948,3.3962,3.3907,3.3922,3.3906,3.391,3.3863,3.3867,3.3708,3.3689,3.3842,3.384,3.3839,0,3.3897,3.3869,3.3887,3.3877,3.3881,3.3864,3.3856,3.3892,3.3882,3.3885,3.3863,3.3847,3.3837,3.3803,3.3819,3.3806,3.3821,3.3766,3.3819,3.381,3.3819,3.3821,3.3818,3.3754,3.3753,3.3751,3.375,0,3.3762,3.3778,3.3767,3.3761,3.3752,3.3748,3.3748,3.3736,3.3774,3.376,3.3742,3.3734,3.3718,3.3701,3.3693,3.3697,3.3729,3.3734,3.3722,3.3712,3.3704,3.3707,3.3876,3.3737,3.3738,3.3739,3.374,3.374,3.3659,3.3637,3.3647,3.3634,3.3638,3.3636,3.3617,3.3634,3.362,3.3611,3.3632,3.3609,3.3613,3.3606,3.3607,3.3588,3.3611,3.3595,3.3591,3.3586,3.3579,3.3708,3.3586,3.3587,3.3587,3.3587,3.3588,0,3.3527,3.3536,3.3524,3.3523,3.3512,3.3546,3.3548,3.3535,3.3515,3.3518,3.3508,3.3487,3.3472,3.3488,3.3476,3.3457,3.3472,3.3453,3.3454,3.3454,3.3558,3.3569,3.3441,3.3441,3.3441,3.3441,3.3441,3.3441,3.3456,3.3421,3.3438,3.3404,3.3414,3.3393,3.3391,3.339,3.3392,3.3368,3.3357,3.3368,3.3376,3.3365,3.3352,3.3357,3.335,3.3326,3.3336,3.3433,3.3447,3.3461,3.3471,3.3324,3.3324,3.3234,3.3233,3.3232]}]]